Meteo Giornale » Osservazioni meteo Stati Uniti (USA) » Glencoe

ore: 15:55 - Osservazioni Meteo Glencoe
Lat. 44° 45' N Lon. 94° 4' W Alt. 302 metri s.l.m.

sereno

29 °C

Sereno

Temp. 24 Ore

20 °C

31 °C

Nord-Ovest

11.1 Km/h

Dew point 17 °C

Umidità 48 %

Visibilità  10 Km

Il sole sorge alle ore 06:37

Il sole tramonta alle ore 19:55

Data e Ora Cielo e Fenomeni T °C DP °C Um. % Pres. hPa Vis. km Vento km/h
Oggi h: 15:55 sereno Sereno 29 17 48 1012 10 NO 11.1
Oggi h: 15:35 sereno Sereno 29 17 48 1012 10 NO 13
Oggi h: 15:15 sereno Sereno 29 18 51 1012 10 NO 13
Oggi h: 14:55 sereno Sereno 29 18 51 1012 10 NO 9.3
Oggi h: 14:35 sereno Sereno 29 17 48 1011 10 O/NO 7.4
Oggi h: 14:15 sereno Sereno 29 18 51 1011 10 NO 7.4
Oggi h: 13:55 sereno Sereno 29 19 54 1011 10 NO 11.1
Oggi h: 13:35 sereno Sereno 29 18 51 1011 10 N/NO 9.3
Oggi h: 13:15 sereno Sereno 29 18 51 1011 10 N/NO 11.1
Oggi h: 12:55 sereno Sereno 28 20 61 1011 10 NO 13
Oggi h: 12:35 sereno Sereno 28 20 61 1012 10 O/NO 11.1
Oggi h: 12:15 sereno Sereno 27 21 69 1012 10 O/NO 11.1
Oggi h: 11:55 nuvoloso Nuvoloso 26 22 78 1012 10 O/NO 11.1
Oggi h: 11:35 sereno Sereno 26 21 73 1011 10 NO 11.1
Oggi h: 11:15 sereno Sereno 26 21 73 1011 10 NO 13
Oggi h: 10:55 sereno Sereno 26 22 78 1011 10 N/NO 13
Oggi h: 10:35 sereno Sereno 26 22 78 1011 10 NO 9.3
Oggi h: 10:15 sereno Sereno 25 22 83 1011 10 O/NO 13
Oggi h: 09:55 sereno Sereno 25 22 83 1010 10 NO 7.4
Oggi h: 09:35 sereno Sereno 25 23 88 1010 10 NO 11.1
Oggi h: 09:15 sereno Sereno 24 23 94 1010 10 O/NO 11.1
Oggi h: 08:55 sereno Sereno 24 23 94 1010 10 O/NO 7.4
Oggi h: 08:35 sereno Sereno 24 23 94 1009 10 N 5.5
Oggi h: 08:15 sereno Sereno 23 22 94 1009 10 O 9.3
Oggi h: 07:55 sereno Sereno 22 21 94 1009 11 N 0
Oggi h: 07:35 foschia Foschia 21 21 100 1009 6 N 0
Oggi h: 07:15 foschia Foschia 21 20 94 1009 6 N 0
Oggi h: 06:55 foschia Foschia 20 20 100 1008 5 S/SO 9.3
Oggi h: 06:35 foschia Foschia 21 21 100 1008 8 N 0
Oggi h: 06:15 foschia Foschia 21 21 100 1008 8 N 0
Oggi h: 05:55 foschia Foschia 21 21 100 1008 6 N 5.5
Oggi h: 05:35 foschia Foschia 21 21 100 1007 8 N 0
Oggi h: 05:15 foschia Foschia 21 21 100 1007 8 N 0
Oggi h: 04:55 foschia Foschia 22 21 94 1007 8 N 5.5
Oggi h: 04:35 foschia Foschia 21 21 100 1007 8 S 9.3
Oggi h: 04:15 foschia Foschia 21 21 100 1007 8 N 5.5
Oggi h: 03:55 foschia Foschia 21 21 100 1007 8 S/SO 7.4
Oggi h: 03:35 sereno Sereno 22 21 94 1007 11 S/SO 7.4
Oggi h: 03:15 sereno Sereno 22 22 100 1007 11 S 9.3
Oggi h: 02:55 sereno Sereno 22 22 100 1007 11 S 9.3
Oggi h: 02:35 sereno Sereno 22 22 100 1007 10 S 9.3
Oggi h: 02:15 sereno Sereno 22 22 100 1007 10 N 5.5
Oggi h: 01:55 sereno Sereno 23 22 94 1007 10 N 5.5
Oggi h: 01:35 sereno Sereno 23 22 94 1007 10 S/SE 7.4
Oggi h: 01:15 sereno Sereno 23 22 94 1007 10 S/SE 7.4
Oggi h: 00:55 sereno Sereno 23 22 94 1007 10 S/SE 7.4
Oggi h: 00:35 sereno Sereno 23 22 94 1008 10 S/SE 9.3
Oggi h: 00:15 sereno Sereno 23 22 94 1008 10 S/SE 9.3
Ieri h: 23:55 sereno Sereno 23 22 94 1008 10 S/SE 7.4
Ieri h: 23:35 sereno Sereno 23 22 94 1008 10 S/SE 7.4
Ieri h: 23:15 sereno Sereno 23 22 94 1008 10 S/SE 9.3
Ieri h: 22:55 sereno Sereno 24 21 83 1008 10 SE 9.3
Ieri h: 22:35 sereno Sereno 24 21 83 1008 10 S/SE 11.1
Ieri h: 22:15 sereno Sereno 24 22 88 1008 10 S/SE 11.1
Ieri h: 21:55 sereno Sereno 24 22 88 1008 10 S/SE 14.8
Ieri h: 21:35 sereno Sereno 25 22 83 1008 10 SE 14.8
Ieri h: 21:15 sereno Sereno 25 22 83 1008 10 SE 14.8
Ieri h: 20:55 sereno Sereno 25 22 83 1008 10 SE 11.1
Ieri h: 20:35 nuvoloso Nuvoloso 26 22 78 1008 10 SE 14.8
Ieri h: 20:15 nuvoloso Nuvoloso 25 22 83 1007 10 SE 11.1
Ieri h: 19:55 nuvoloso Nuvoloso 26 22 78 1007 10 SE 9.3
Ieri h: 19:35 nuvoloso Nuvoloso 27 23 78 1007 10 S/SE 7.4
Ieri h: 19:15 nuvoloso Nuvoloso 27 23 78 1007 10 SE 9.3
Ieri h: 18:55 molto_nuvoloso Molto Nuvoloso 28 22 69 1007 10 S/SE 7.4
Ieri h: 18:35 nuvoloso Nuvoloso 29 23 70 1007 10 S/SE 14.8
Ieri h: 18:15 nuvoloso Nuvoloso 30 23 66 1007 10 S/SE 11.1
Ieri h: 17:55 sereno Sereno 31 23 62 1007 10 S/SE 14.8
Ieri h: 17:35 sereno Sereno 31 23 62 1007 10 E 16.7
Ieri h: 17:15 sereno Sereno 31 23 62 1007 10 E/SE 11.1
Ieri h: 16:55 sereno Sereno 31 23 62 1007 10 E/SE 14.8
Ieri h: 16:35 nuvoloso Nuvoloso 30 24 70 1007 10 E 13